Yuma, AZ

4:39 AM MST on February 08, 2016 (GMT -0700)
Yuma Marine Corps Air Station

Weather History for KNYL - April, 2014

Change the Weather History Date:

Thursday, April 17, 2014

  Actual Average Record
Temperature  
Mean Temperature 79 °F 73 °F  
Max Temperature 91 °F 87 °F 105 °F (1954)
Min Temperature 67 °F 60 °F 43 °F (1924)
Degree Days  
Heating Degree Days 0 0  
Month to date heating degree days 5 12  
Since 1 July heating degree days 370 685  
Cooling Degree Days 14 9  
Month to date cooling degree days 158 117  
Year to date cooling degree days 457 270  
Growing Degree Days 28 (Base 50)    
Moisture  
Dew Point 38 °F    
Average Humidity 29    
Maximum Humidity 45    
Minimum Humidity 12    
Precipitation  
Precipitation 0.00 in 0.00 in 0.14 in (1917)
Month to date precipitation 0.00 0.11  
Year to date precipitation 0.07 1.20  
Sea Level Pressure  
Sea Level Pressure 29.80 in    
Wind  
Wind Speed 10 mph (SSE)    
Max Wind Speed 18 mph    
Max Gust Speed 24 mph    
Visibility 10 miles    
Events      
T = Trace of Precipitation, MM = Missing Value Source: NWS Daily Summary

Daily Weather History Graph

Daily Weather History Graph

Search for Another Location

Airport or City:

Trip Planner

Search our weather history database for the weather conditions in past years. The results will help you decide how hot, cold, wet, or windy it might be!

Date:

Astronomy

Apr. 17, 2014 Rise Set
Actual Time 6:06 AM MST 7:09 PM MST
Civil Twilight 5:41 AM MST 7:35 PM MST
Nautical Twilight 5:11 AM MST 8:05 PM MST
Astronomical Twilight 4:39 AM MST 8:36 PM MST
Moon 9:53 PM MST (4/17) 7:47 AM MST (4/17)
Length of Visible Light 13h 54m
Length of Day
13h 03m
Waning Gibbous, 93% of the Moon is Illuminated
Apr 17
Waning Gibbous
Apr 22
Last Quarter
Apr 28
New
May 6
First Quarter
May 14
Full

Hourly Weather History & Observations

Time (MST) Temp. Dew Point Humidity Pressure Visibility Wind Dir Wind Speed Gust Speed Precip Events Conditions
12:57 AM 71.1 °F 41.0 °F 34% 29.75 in 10.0 mi South 13.8 mph - N/A   Clear
1:57 AM 71.1 °F 68.0 °F 90% 29.75 in 10.0 mi SSE 10.4 mph - N/A   Clear
2:57 AM 73.0 °F 25.0 °F 17% 29.75 in 10.0 mi SE 8.1 mph - N/A   Clear
3:57 AM 72.0 °F 28.9 °F 20% 29.75 in 10.0 mi ESE 6.9 mph - N/A   Clear
4:57 AM 69.8 °F 30.2 °F 23% 29.77 in 10.0 mi East 5.8 mph - N/A   Clear
5:57 AM 68.0 °F 41.0 °F 37% 29.79 in 10.0 mi SSE 10.4 mph - N/A   Clear
6:57 AM 66.9 °F 44.1 °F 44% 29.82 in 10.0 mi South 4.6 mph - N/A   Partly Cloudy
7:57 AM 75.0 °F 42.1 °F 31% 29.85 in 10.0 mi SE 12.7 mph - N/A   Partly Cloudy
8:57 AM 78.1 °F 45.0 °F 31% 29.86 in 10.0 mi SSE 15.0 mph - N/A   Partly Cloudy
9:57 AM 80.1 °F 44.1 °F 28% 29.87 in 10.0 mi SSE 8.1 mph - N/A   Partly Cloudy
10:57 AM 84.9 °F 30.9 °F 14% 29.87 in 10.0 mi SSE 11.5 mph - N/A   Scattered Clouds
11:57 AM 87.1 °F 28.0 °F 12% 29.86 in 10.0 mi SSE 12.7 mph 19.6 mph N/A   Scattered Clouds
12:57 PM 89.1 °F 30.0 °F 12% 29.84 in 10.0 mi South 16.1 mph 24.2 mph N/A   Mostly Cloudy
1:57 PM 90.0 °F 36.0 °F 15% 29.83 in 10.0 mi SSE 11.5 mph 23.0 mph N/A   Mostly Cloudy
2:57 PM 89.1 °F 32.0 °F 13% 29.81 in 10.0 mi South 8.1 mph - N/A   Mostly Cloudy
3:57 PM 90.0 °F 37.0 °F 15% 29.79 in 10.0 mi South 13.8 mph - N/A   Mostly Cloudy
4:57 PM 88.0 °F 36.0 °F 16% 29.78 in 10.0 mi SSE 17.3 mph - N/A   Mostly Cloudy
5:57 PM 84.9 °F 34.0 °F 16% 29.77 in 10.0 mi South 8.1 mph - N/A   Mostly Cloudy
6:57 PM 82.0 °F 34.0 °F 18% 29.77 in 10.0 mi SSE 4.6 mph - N/A   Mostly Cloudy
7:57 PM 79.0 °F 33.1 °F 19% 29.78 in 10.0 mi South 9.2 mph - N/A   Mostly Cloudy
8:57 PM 75.9 °F 36.0 °F 23% 29.80 in 10.0 mi West 8.1 mph - N/A   Mostly Cloudy
9:57 PM 73.0 °F 46.0 °F 38% 29.79 in 10.0 mi Calm Calm - N/A   Mostly Cloudy
10:57 PM 73.9 °F 43.0 °F 33% 29.79 in 10.0 mi SSE 9.2 mph - N/A   Clear
11:57 PM 71.1 °F 48.9 °F 45% 29.79 in 10.0 mi South 8.1 mph - N/A   Clear